Aviation Digital Data Service (ADDS)

Output produced by METARs form (1351 UTC 26 May 2018)
found at http://www.aviationweather.gov/adds/metars/
 
OIAA 261300Z 36010KT CAVOK 42/09 Q1005
TAF OIAA 261100Z 2612/2718 30004MPS 7000 NSC 
     TEMPO 2612/2616 30007MPS 3000 DU SA 
     TEMPO 2709/2712 33008MPS SA
       
OIBA 261300Z 28006KT 8000 NSC 32/25 Q1003
OIAG 261300Z 32016KT 8000 NSC 41/07 Q1004
OIAW 261330Z 01004KT 8000 NSC 41/06 Q1003
TAF OIAW 261100Z 2612/2718 06004MPS 7000 NSC 
     TEMPO 2612/2618 27009MPS 3000 SA DU 
     TEMPO 2709/2712 27009MPS 3000 SA
       
OIHR 261100Z 26012KT 4000 DU FEW035TCU SCT040 26/02 Q1018
OITL 261330Z 07019KT 9999 SCT040 SCT045CB BKN190 21/12 Q1015
OIAA 261300Z 36010KT CAVOK 42/09 Q1005
TAF OIAA 261100Z 2612/2718 30004MPS 7000 NSC 
     TEMPO 2612/2616 30007MPS 3000 DU SA 
     TEMPO 2709/2712 33008MPS SA
       
OIAG 261300Z 32016KT 8000 NSC 41/07 Q1004
OIAH 261300Z 31008KT 7000 NSC 36/M02 Q1009
OIAM 261300Z 30010KT CAVOK 41/10 Q1004
OIAW 261330Z 01004KT 8000 NSC 41/06 Q1003
TAF OIAW 261100Z 2612/2718 06004MPS 7000 NSC 
     TEMPO 2612/2618 27009MPS 3000 SA DU 
     TEMPO 2709/2712 27009MPS 3000 SA
       
OIBA 261300Z 28006KT 8000 NSC 32/25 Q1003
OIBB 261330Z 31014KT 7000 NSC 32/22 Q1004 A2965
OIBJ 261300Z 22012KT 7000 NSC 34/11 Q1009
OIBK 261300Z 22006KT 6000 NSC 35/14 Q1004
TAF OIBK 261100Z 2612/2718 24004MPS 6000 FEW040 SCT100 
     TEMPO 2614/2619 27007MPS FEW035CB FEW030 BKN100 
     BECMG 2618/2620 3000 BR 
     BECMG 2704/2706 7000 NSC
       
OIBL 261300Z 24014KT 3500 HZ NSC 35/19 Q1004
OIBP 261230Z 25004KT 5000 HZ FEW040 BKN200 36/15 Q1001 A2958
OIBQ 261300Z 27014KT 8000 NSC 33/23 Q1004
OIBS 261300Z 22006KT 6000 FEW035 BKN090 33/24 Q1004
OIBV 261300Z 32010KT 6000 NSC 32/18 Q1004
OICC 261330Z 29008KT 9999 SCT040 27/04 Q1016 A3001 NOSIG
OICI 261300Z 31010KT 9999 SCT045 29/07 Q1018
TAF OICI 261100Z 2612/2718 27004MPS 7000 NSC 
     TEMPO 2612/2616 30007MPS 5000 SA
       
OICS 261300Z 27004KT 9999 FEW035TCU SCT040 28/02 Q1016
OIFM 261330Z 23006KT 6000 NSC 30/M02 Q1015 A2998
TAF OIFM 261100Z 2612/2718 22004MPS 7000 FEW040 
     BECMG 2700/2702 3000 HZ 
     BECMG 2706/2708 7000 NSC
       
OIFS 261300Z 19010KT 9000 FEW040 26/01 Q1020
OIGG 261330Z 36004KT CAVOK 27/15 Q1010
OIHH 261300Z 32014KT 8000 SCT040 24/08 Q1018
OIHR 261100Z 26012KT 4000 DU FEW035TCU SCT040 26/02 Q1018
OIIE 261300Z 31012KT 9999 FEW040 32/03 Q1011
TAF OIIE 261100Z 2612/2718 30004MPS CAVOK 
     TEMPO 2615/2621 29007G12MPS 3000 SA FEW035TCU SCT040 BKN100
       
OIII 261330Z 28014KT 8000 FEW035 30/M00 Q1012 A2991
TAF OIII 261100Z 2612/2718 22004MPS 7000 FEW030 
     TEMPO 2612/2618 30007G12MPS 3000 SA FEW035TCU SCT040 BKN100
       
OIIK 261300Z 18004KT 7000 FEW035CB SCT040 29/07 Q1014
OIIP 261300Z 32012KT 5000 HZ SCT035TCU 28/01 Q1013
OIKB 261330Z 22012KT 4000 HZ FEW030 SCT090 BKN190 37/21 Q1003 A2963
TAF OIKB 261100Z 2612/2718 23004MPS 4000 HZ FEW040 SCT100 
     TEMPO 2612/2621 23009MPS 
     TEMPO 2709/2712 23009MPS FEW030CB SCT035 BKN100
       
OIKK 261300Z 34008KT 9999 FEW045 SCT200 33/M12 Q1016 A3000
TAF OIKK 261100Z 2612/2718 33004MPS CAVOK 
     TEMPO 2612/2615 FEW040TCU SCT045
       
OIKQ 261300Z 25016KT 6000 NSC 32/26 Q1003
OIMB 261300Z 35010KT 9999 FEW040 33/M08 Q1014
OIMC 261300Z 36008KT CAVOK 40/M07 Q1006
OIMD 261300Z 36010KT 9999 FEW040 SCT200 35/M04 Q1008
OIMM 261330Z 06004KT CAVOK 34/M04 Q1010 A2984
TAF OIMM 261100Z 2612/2718 30004MPS 8000 NSC 
     TEMPO 2704/2708 30007MPS FEW035CB SCT040 BKN090
       
OIMN 261300Z 28010KT 9999 FEW040 SCT090 31/01 Q1012
OIMQ 261300Z 24010KT CAVOK 34/M04 Q1011
OINE 261300Z 27012KT CAVOK 36/13 Q1006
OING 261300Z 28016KT 9999 SCT100 33/15 Q1009
OINN 261300Z VRB02KT 9999 FEW028CB SCT035 BKN170 27/22 Q1007
OINR 261300Z 32012KT 9999 FEW030CB SCT035 28/19 Q1007
OINZ 261300Z 32010KT CAVOK 31/16 Q1008
OISF 261300Z 21010KT 6000 NSC 33/M01 Q1011
OISL 261300Z 29006KT CAVOK 37/07 Q1007
TAF OISL 261100Z 2612/2718 27004MPS CAVOK 
     BECMG 2621/2623 7000 FEW040 SCT100
       
OISR 261300Z 14006KT CAVOK 38/09 Q1006
OISS 261330Z 29008KT 5000 DU NSC 31/M06 Q1014 A2996
TAF OISS 261100Z 2612/2718 30004MPS 5000 DU NSC 
     TEMPO 2612/2617 30008G13MPS
       
OISY 261300Z 17006KT 9000 NSC 27/M01 Q1018
OITK 260830Z 05004KT 9999 SCT035TCU 25/14 Q1014
OITL 261330Z 07019KT 9999 SCT040 SCT045CB BKN190 21/12 Q1015
OITM 261300Z 27008KT 9999 FEW035TCU SCT100 BKN170 23/11 Q1016
OITP 261300Z 11008KT 9999 FEW035 FEW035TCU SCT180 33/15 Q1007
OITR 261330Z 07006KT 9999 SCT030CB SCT035 22/11 Q1017 RETS
TAF OITR 261100Z 2612/2718 06005MPS 8000 FEW035CB FEW040 BKN100 
     TEMPO 2612/2618 5000 TSRA SCT035CB SCT040 OVC090 
     BECMG 2621/2623 7000 NSC
       
OITT 261330Z 25006KT 9999 TS VCSH FEW032TCU SCT040CB BKN170 25/06 Q1016 A3002
TAF OITT 261100Z 2612/2718 24003MPS 7000 FEW030CB FEW035 BKN100 
     TEMPO 2612/2616 30007MPS 5000 TSRA SCT030CB SCT035 OVC090 
     BECMG 2621/2623 7000 NSC
       
OITZ 261300Z 27004KT 7000 BKN030CB SCT170 23/10 Q1017
OIYY 261330Z 03006KT 9999 FEW040 35/M03 Q1012
OIZB 261300Z 02008KT CAVOK 39/M01 Q1003
OIZH 261300Z 02010KT 9999 FEW040 BKN200 33/M01 Q1013 A2993 NOSIG
TAF OIZH 261100Z 2612/2718 07003MPS 7000 FEW040SCT100 
     TEMPO 2612/2618 07008MPS
       
OIZI 261300Z 24008KT CAVOK 41/03 Q1006
OIZJ 261300Z 21010KT 6000 NSC 32/27 Q1003
OIAA 261300Z 36010KT CAVOK 42/09 Q1005
TAF OIAA 261100Z 2612/2718 30004MPS 7000 NSC 
     TEMPO 2612/2616 30007MPS 3000 DU SA 
     TEMPO 2709/2712 33008MPS SA
       
OIAG 261300Z 32016KT 8000 NSC 41/07 Q1004
OIAH 261300Z 31008KT 7000 NSC 36/M02 Q1009
OIAM 261300Z 30010KT CAVOK 41/10 Q1004
OIAW 261330Z 01004KT 8000 NSC 41/06 Q1003
TAF OIAW 261100Z 2612/2718 06004MPS 7000 NSC 
     TEMPO 2612/2618 27009MPS 3000 SA DU 
     TEMPO 2709/2712 27009MPS 3000 SA
       
OIBA 261300Z 28006KT 8000 NSC 32/25 Q1003
OIBB 261330Z 31014KT 7000 NSC 32/22 Q1004 A2965
OIBJ 261300Z 22012KT 7000 NSC 34/11 Q1009
OIBK 261300Z 22006KT 6000 NSC 35/14 Q1004
TAF OIBK 261100Z 2612/2718 24004MPS 6000 FEW040 SCT100 
     TEMPO 2614/2619 27007MPS FEW035CB FEW030 BKN100 
     BECMG 2618/2620 3000 BR 
     BECMG 2704/2706 7000 NSC
       
OIBL 261300Z 24014KT 3500 HZ NSC 35/19 Q1004
OIBP 261230Z 25004KT 5000 HZ FEW040 BKN200 36/15 Q1001 A2958
OIBQ 261300Z 27014KT 8000 NSC 33/23 Q1004
OIBS 261300Z 22006KT 6000 FEW035 BKN090 33/24 Q1004
OIBV 261300Z 32010KT 6000 NSC 32/18 Q1004
OICC 261330Z 29008KT 9999 SCT040 27/04 Q1016 A3001 NOSIG
OICI 261300Z 31010KT 9999 SCT045 29/07 Q1018
TAF OICI 261100Z 2612/2718 27004MPS 7000 NSC 
     TEMPO 2612/2616 30007MPS 5000 SA
       
OICS 261300Z 27004KT 9999 FEW035TCU SCT040 28/02 Q1016
OIFM 261330Z 23006KT 6000 NSC 30/M02 Q1015 A2998
TAF OIFM 261100Z 2612/2718 22004MPS 7000 FEW040 
     BECMG 2700/2702 3000 HZ 
     BECMG 2706/2708 7000 NSC
       
OIFS 261300Z 19010KT 9000 FEW040 26/01 Q1020
OIGG 261330Z 36004KT CAVOK 27/15 Q1010
OIHH 261300Z 32014KT 8000 SCT040 24/08 Q1018
OIHR 261100Z 26012KT 4000 DU FEW035TCU SCT040 26/02 Q1018
OIIE 261300Z 31012KT 9999 FEW040 32/03 Q1011
TAF OIIE 261100Z 2612/2718 30004MPS CAVOK 
     TEMPO 2615/2621 29007G12MPS 3000 SA FEW035TCU SCT040 BKN100
       
OIII 261330Z 28014KT 8000 FEW035 30/M00 Q1012 A2991
TAF OIII 261100Z 2612/2718 22004MPS 7000 FEW030 
     TEMPO 2612/2618 30007G12MPS 3000 SA FEW035TCU SCT040 BKN100
       
OIIK 261300Z 18004KT 7000 FEW035CB SCT040 29/07 Q1014
OIIP 261300Z 32012KT 5000 HZ SCT035TCU 28/01 Q1013
OIKB 261330Z 22012KT 4000 HZ FEW030 SCT090 BKN190 37/21 Q1003 A2963
TAF OIKB 261100Z 2612/2718 23004MPS 4000 HZ FEW040 SCT100 
     TEMPO 2612/2621 23009MPS 
     TEMPO 2709/2712 23009MPS FEW030CB SCT035 BKN100
       
OIKK 261300Z 34008KT 9999 FEW045 SCT200 33/M12 Q1016 A3000
TAF OIKK 261100Z 2612/2718 33004MPS CAVOK 
     TEMPO 2612/2615 FEW040TCU SCT045
       
OIKQ 261300Z 25016KT 6000 NSC 32/26 Q1003
OIMB 261300Z 35010KT 9999 FEW040 33/M08 Q1014
OIMC 261300Z 36008KT CAVOK 40/M07 Q1006
OIMD 261300Z 36010KT 9999 FEW040 SCT200 35/M04 Q1008
OIMM 261330Z 06004KT CAVOK 34/M04 Q1010 A2984
TAF OIMM 261100Z 2612/2718 30004MPS 8000 NSC 
     TEMPO 2704/2708 30007MPS FEW035CB SCT040 BKN090
       
OIMN 261300Z 28010KT 9999 FEW040 SCT090 31/01 Q1012
OIMQ 261300Z 24010KT CAVOK 34/M04 Q1011
OINE 261300Z 27012KT CAVOK 36/13 Q1006
OING 261300Z 28016KT 9999 SCT100 33/15 Q1009
OINN 261300Z VRB02KT 9999 FEW028CB SCT035 BKN170 27/22 Q1007
OINR 261300Z 32012KT 9999 FEW030CB SCT035 28/19 Q1007
OINZ 261300Z 32010KT CAVOK 31/16 Q1008
OISF 261300Z 21010KT 6000 NSC 33/M01 Q1011
OISL 261300Z 29006KT CAVOK 37/07 Q1007
TAF OISL 261100Z 2612/2718 27004MPS CAVOK 
     BECMG 2621/2623 7000 FEW040 SCT100
       
OISR 261300Z 14006KT CAVOK 38/09 Q1006
OISS 261330Z 29008KT 5000 DU NSC 31/M06 Q1014 A2996
TAF OISS 261100Z 2612/2718 30004MPS 5000 DU NSC 
     TEMPO 2612/2617 30008G13MPS
       
OISY 261300Z 17006KT 9000 NSC 27/M01 Q1018
OITK 260830Z 05004KT 9999 SCT035TCU 25/14 Q1014
OITL 261330Z 07019KT 9999 SCT040 SCT045CB BKN190 21/12 Q1015
OITM 261300Z 27008KT 9999 FEW035TCU SCT100 BKN170 23/11 Q1016
OITP 261300Z 11008KT 9999 FEW035 FEW035TCU SCT180 33/15 Q1007
OITR 261330Z 07006KT 9999 SCT030CB SCT035 22/11 Q1017 RETS
TAF OITR 261100Z 2612/2718 06005MPS 8000 FEW035CB FEW040 BKN100 
     TEMPO 2612/2618 5000 TSRA SCT035CB SCT040 OVC090 
     BECMG 2621/2623 7000 NSC
       
OITT 261330Z 25006KT 9999 TS VCSH FEW032TCU SCT040CB BKN170 25/06 Q1016 A3002
TAF OITT 261100Z 2612/2718 24003MPS 7000 FEW030CB FEW035 BKN100 
     TEMPO 2612/2616 30007MPS 5000 TSRA SCT030CB SCT035 OVC090 
     BECMG 2621/2623 7000 NSC
       
OITZ 261300Z 27004KT 7000 BKN030CB SCT170 23/10 Q1017
OIYY 261330Z 03006KT 9999 FEW040 35/M03 Q1012
OIZB 261300Z 02008KT CAVOK 39/M01 Q1003
OIZH 261300Z 02010KT 9999 FEW040 BKN200 33/M01 Q1013 A2993 NOSIG
TAF OIZH 261100Z 2612/2718 07003MPS 7000 FEW040SCT100 
     TEMPO 2612/2618 07008MPS
       
OIZI 261300Z 24008KT CAVOK 41/03 Q1006
OIZJ 261300Z 21010KT 6000 NSC 32/27 Q1003
OIKB 261330Z 22012KT 4000 HZ FEW030 SCT090 BKN190 37/21 Q1003 A2963
TAF OIKB 261100Z 2612/2718 23004MPS 4000 HZ FEW040 SCT100 
     TEMPO 2612/2621 23009MPS 
     TEMPO 2709/2712 23009MPS FEW030CB SCT035 BKN100
       
OIBL 261300Z 24014KT 3500 HZ NSC 35/19 Q1004
OIAA 261300Z 36010KT CAVOK 42/09 Q1005
TAF OIAA 261100Z 2612/2718 30004MPS 7000 NSC 
     TEMPO 2612/2616 30007MPS 3000 DU SA 
     TEMPO 2709/2712 33008MPS SA
       
OIAG 261300Z 32016KT 8000 NSC 41/07 Q1004
OIAH 261300Z 31008KT 7000 NSC 36/M02 Q1009
OIAM 261300Z 30010KT CAVOK 41/10 Q1004
OIAW 261330Z 01004KT 8000 NSC 41/06 Q1003
TAF OIAW 261100Z 2612/2718 06004MPS 7000 NSC 
     TEMPO 2612/2618 27009MPS 3000 SA DU 
     TEMPO 2709/2712 27009MPS 3000 SA
       
OIBA 261300Z 28006KT 8000 NSC 32/25 Q1003
OIBB 261330Z 31014KT 7000 NSC 32/22 Q1004 A2965
OIBJ 261300Z 22012KT 7000 NSC 34/11 Q1009
OIBK 261300Z 22006KT 6000 NSC 35/14 Q1004
TAF OIBK 261100Z 2612/2718 24004MPS 6000 FEW040 SCT100 
     TEMPO 2614/2619 27007MPS FEW035CB FEW030 BKN100 
     BECMG 2618/2620 3000 BR 
     BECMG 2704/2706 7000 NSC
       
OIBL 261300Z 24014KT 3500 HZ NSC 35/19 Q1004
OIBP 261230Z 25004KT 5000 HZ FEW040 BKN200 36/15 Q1001 A2958
OIBQ 261300Z 27014KT 8000 NSC 33/23 Q1004
OIBS 261300Z 22006KT 6000 FEW035 BKN090 33/24 Q1004
OIBV 261300Z 32010KT 6000 NSC 32/18 Q1004
OICC 261330Z 29008KT 9999 SCT040 27/04 Q1016 A3001 NOSIG
OICI 261300Z 31010KT 9999 SCT045 29/07 Q1018
TAF OICI 261100Z 2612/2718 27004MPS 7000 NSC 
     TEMPO 2612/2616 30007MPS 5000 SA
       
OICS 261300Z 27004KT 9999 FEW035TCU SCT040 28/02 Q1016
OIFM 261330Z 23006KT 6000 NSC 30/M02 Q1015 A2998
TAF OIFM 261100Z 2612/2718 22004MPS 7000 FEW040 
     BECMG 2700/2702 3000 HZ 
     BECMG 2706/2708 7000 NSC
       
OIFS 261300Z 19010KT 9000 FEW040 26/01 Q1020
OIGG 261330Z 36004KT CAVOK 27/15 Q1010
OIHH 261300Z 32014KT 8000 SCT040 24/08 Q1018
OIHR 261100Z 26012KT 4000 DU FEW035TCU SCT040 26/02 Q1018
OIIE 261300Z 31012KT 9999 FEW040 32/03 Q1011
TAF OIIE 261100Z 2612/2718 30004MPS CAVOK 
     TEMPO 2615/2621 29007G12MPS 3000 SA FEW035TCU SCT040 BKN100
       
OIII 261330Z 28014KT 8000 FEW035 30/M00 Q1012 A2991
TAF OIII 261100Z 2612/2718 22004MPS 7000 FEW030 
     TEMPO 2612/2618 30007G12MPS 3000 SA FEW035TCU SCT040 BKN100
       
OIIK 261300Z 18004KT 7000 FEW035CB SCT040 29/07 Q1014
OIIP 261300Z 32012KT 5000 HZ SCT035TCU 28/01 Q1013
OIKB 261330Z 22012KT 4000 HZ FEW030 SCT090 BKN190 37/21 Q1003 A2963
TAF OIKB 261100Z 2612/2718 23004MPS 4000 HZ FEW040 SCT100 
     TEMPO 2612/2621 23009MPS 
     TEMPO 2709/2712 23009MPS FEW030CB SCT035 BKN100
       
OIKK 261300Z 34008KT 9999 FEW045 SCT200 33/M12 Q1016 A3000
TAF OIKK 261100Z 2612/2718 33004MPS CAVOK 
     TEMPO 2612/2615 FEW040TCU SCT045
       
OIKQ 261300Z 25016KT 6000 NSC 32/26 Q1003
OIMB 261300Z 35010KT 9999 FEW040 33/M08 Q1014
OIMC 261300Z 36008KT CAVOK 40/M07 Q1006
OIMD 261300Z 36010KT 9999 FEW040 SCT200 35/M04 Q1008
OIMM 261330Z 06004KT CAVOK 34/M04 Q1010 A2984
TAF OIMM 261100Z 2612/2718 30004MPS 8000 NSC 
     TEMPO 2704/2708 30007MPS FEW035CB SCT040 BKN090
       
OIMN 261300Z 28010KT 9999 FEW040 SCT090 31/01 Q1012
OIMQ 261300Z 24010KT CAVOK 34/M04 Q1011
OINE 261300Z 27012KT CAVOK 36/13 Q1006
OING 261300Z 28016KT 9999 SCT100 33/15 Q1009
OINN 261300Z VRB02KT 9999 FEW028CB SCT035 BKN170 27/22 Q1007
OINR 261300Z 32012KT 9999 FEW030CB SCT035 28/19 Q1007
OINZ 261300Z 32010KT CAVOK 31/16 Q1008
OISF 261300Z 21010KT 6000 NSC 33/M01 Q1011
OISL 261300Z 29006KT CAVOK 37/07 Q1007
TAF OISL 261100Z 2612/2718 27004MPS CAVOK 
     BECMG 2621/2623 7000 FEW040 SCT100
       
OISR 261300Z 14006KT CAVOK 38/09 Q1006
OISS 261330Z 29008KT 5000 DU NSC 31/M06 Q1014 A2996
TAF OISS 261100Z 2612/2718 30004MPS 5000 DU NSC 
     TEMPO 2612/2617 30008G13MPS
       
OISY 261300Z 17006KT 9000 NSC 27/M01 Q1018
OITK 260830Z 05004KT 9999 SCT035TCU 25/14 Q1014
OITL 261330Z 07019KT 9999 SCT040 SCT045CB BKN190 21/12 Q1015
OITM 261300Z 27008KT 9999 FEW035TCU SCT100 BKN170 23/11 Q1016
OITP 261300Z 11008KT 9999 FEW035 FEW035TCU SCT180 33/15 Q1007
OITR 261330Z 07006KT 9999 SCT030CB SCT035 22/11 Q1017 RETS
TAF OITR 261100Z 2612/2718 06005MPS 8000 FEW035CB FEW040 BKN100 
     TEMPO 2612/2618 5000 TSRA SCT035CB SCT040 OVC090 
     BECMG 2621/2623 7000 NSC
       
OITT 261330Z 25006KT 9999 TS VCSH FEW032TCU SCT040CB BKN170 25/06 Q1016 A3002
TAF OITT 261100Z 2612/2718 24003MPS 7000 FEW030CB FEW035 BKN100 
     TEMPO 2612/2616 30007MPS 5000 TSRA SCT030CB SCT035 OVC090 
     BECMG 2621/2623 7000 NSC
       
OITZ 261300Z 27004KT 7000 BKN030CB SCT170 23/10 Q1017
OIYY 261330Z 03006KT 9999 FEW040 35/M03 Q1012
OIZB 261300Z 02008KT CAVOK 39/M01 Q1003
OIZH 261300Z 02010KT 9999 FEW040 BKN200 33/M01 Q1013 A2993 NOSIG
TAF OIZH 261100Z 2612/2718 07003MPS 7000 FEW040SCT100 
     TEMPO 2612/2618 07008MPS
       
OIZI 261300Z 24008KT CAVOK 41/03 Q1006
OIZJ 261300Z 21010KT 6000 NSC 32/27 Q1003
OIMB 261300Z 35010KT 9999 FEW040 33/M08 Q1014
OIMN 261300Z 28010KT 9999 FEW040 SCT090 31/01 Q1012
OIBB 261330Z 31014KT 7000 NSC 32/22 Q1004 A2965
OIKQ 261300Z 25016KT 6000 NSC 32/26 Q1003
OIAA 261300Z 36010KT CAVOK 42/09 Q1005
TAF OIAA 261100Z 2612/2718 30004MPS 7000 NSC 
     TEMPO 2612/2616 30007MPS 3000 DU SA 
     TEMPO 2709/2712 33008MPS SA
       
OIAG 261300Z 32016KT 8000 NSC 41/07 Q1004
OIAH 261300Z 31008KT 7000 NSC 36/M02 Q1009
OIAM 261300Z 30010KT CAVOK 41/10 Q1004
OIAW 261330Z 01004KT 8000 NSC 41/06 Q1003
TAF OIAW 261100Z 2612/2718 06004MPS 7000 NSC 
     TEMPO 2612/2618 27009MPS 3000 SA DU 
     TEMPO 2709/2712 27009MPS 3000 SA
       
OIBA 261300Z 28006KT 8000 NSC 32/25 Q1003
OIBB 261330Z 31014KT 7000 NSC 32/22 Q1004 A2965
OIBJ 261300Z 22012KT 7000 NSC 34/11 Q1009
OIBK 261300Z 22006KT 6000 NSC 35/14 Q1004
TAF OIBK 261100Z 2612/2718 24004MPS 6000 FEW040 SCT100 
     TEMPO 2614/2619 27007MPS FEW035CB FEW030 BKN100 
     BECMG 2618/2620 3000 BR 
     BECMG 2704/2706 7000 NSC
       
OIBL 261300Z 24014KT 3500 HZ NSC 35/19 Q1004
OIBP 261230Z 25004KT 5000 HZ FEW040 BKN200 36/15 Q1001 A2958
OIBQ 261300Z 27014KT 8000 NSC 33/23 Q1004
OIBS 261300Z 22006KT 6000 FEW035 BKN090 33/24 Q1004
OIBV 261300Z 32010KT 6000 NSC 32/18 Q1004
OICC 261330Z 29008KT 9999 SCT040 27/04 Q1016 A3001 NOSIG
OICI 261300Z 31010KT 9999 SCT045 29/07 Q1018
TAF OICI 261100Z 2612/2718 27004MPS 7000 NSC 
     TEMPO 2612/2616 30007MPS 5000 SA
       
OICS 261300Z 27004KT 9999 FEW035TCU SCT040 28/02 Q1016
OIFM 261330Z 23006KT 6000 NSC 30/M02 Q1015 A2998
TAF OIFM 261100Z 2612/2718 22004MPS 7000 FEW040 
     BECMG 2700/2702 3000 HZ 
     BECMG 2706/2708 7000 NSC
       
OIFS 261300Z 19010KT 9000 FEW040 26/01 Q1020
OIGG 261330Z 36004KT CAVOK 27/15 Q1010
OIHH 261300Z 32014KT 8000 SCT040 24/08 Q1018
OIHR 261100Z 26012KT 4000 DU FEW035TCU SCT040 26/02 Q1018
OIIE 261300Z 31012KT 9999 FEW040 32/03 Q1011
TAF OIIE 261100Z 2612/2718 30004MPS CAVOK 
     TEMPO 2615/2621 29007G12MPS 3000 SA FEW035TCU SCT040 BKN100
       
OIII 261330Z 28014KT 8000 FEW035 30/M00 Q1012 A2991
TAF OIII 261100Z 2612/2718 22004MPS 7000 FEW030 
     TEMPO 2612/2618 30007G12MPS 3000 SA FEW035TCU SCT040 BKN100
       
OIIK 261300Z 18004KT 7000 FEW035CB SCT040 29/07 Q1014
OIIP 261300Z 32012KT 5000 HZ SCT035TCU 28/01 Q1013
OIKB 261330Z 22012KT 4000 HZ FEW030 SCT090 BKN190 37/21 Q1003 A2963
TAF OIKB 261100Z 2612/2718 23004MPS 4000 HZ FEW040 SCT100 
     TEMPO 2612/2621 23009MPS 
     TEMPO 2709/2712 23009MPS FEW030CB SCT035 BKN100
       
OIKK 261300Z 34008KT 9999 FEW045 SCT200 33/M12 Q1016 A3000
TAF OIKK 261100Z 2612/2718 33004MPS CAVOK 
     TEMPO 2612/2615 FEW040TCU SCT045
       
OIKQ 261300Z 25016KT 6000 NSC 32/26 Q1003
OIMB 261300Z 35010KT 9999 FEW040 33/M08 Q1014
OIMC 261300Z 36008KT CAVOK 40/M07 Q1006
OIMD 261300Z 36010KT 9999 FEW040 SCT200 35/M04 Q1008
OIMM 261330Z 06004KT CAVOK 34/M04 Q1010 A2984
TAF OIMM 261100Z 2612/2718 30004MPS 8000 NSC 
     TEMPO 2704/2708 30007MPS FEW035CB SCT040 BKN090
       
OIMN 261300Z 28010KT 9999 FEW040 SCT090 31/01 Q1012
OIMQ 261300Z 24010KT CAVOK 34/M04 Q1011
OINE 261300Z 27012KT CAVOK 36/13 Q1006
OING 261300Z 28016KT 9999 SCT100 33/15 Q1009
OINN 261300Z VRB02KT 9999 FEW028CB SCT035 BKN170 27/22 Q1007
OINR 261300Z 32012KT 9999 FEW030CB SCT035 28/19 Q1007
OINZ 261300Z 32010KT CAVOK 31/16 Q1008
OISF 261300Z 21010KT 6000 NSC 33/M01 Q1011
OISL 261300Z 29006KT CAVOK 37/07 Q1007
TAF OISL 261100Z 2612/2718 27004MPS CAVOK 
     BECMG 2621/2623 7000 FEW040 SCT100
       
OISR 261300Z 14006KT CAVOK 38/09 Q1006
OISS 261330Z 29008KT 5000 DU NSC 31/M06 Q1014 A2996
TAF OISS 261100Z 2612/2718 30004MPS 5000 DU NSC 
     TEMPO 2612/2617 30008G13MPS
       
OISY 261300Z 17006KT 9000 NSC 27/M01 Q1018
OITK 260830Z 05004KT 9999 SCT035TCU 25/14 Q1014
OITL 261330Z 07019KT 9999 SCT040 SCT045CB BKN190 21/12 Q1015
OITM 261300Z 27008KT 9999 FEW035TCU SCT100 BKN170 23/11 Q1016
OITP 261300Z 11008KT 9999 FEW035 FEW035TCU SCT180 33/15 Q1007
OITR 261330Z 07006KT 9999 SCT030CB SCT035 22/11 Q1017 RETS
TAF OITR 261100Z 2612/2718 06005MPS 8000 FEW035CB FEW040 BKN100 
     TEMPO 2612/2618 5000 TSRA SCT035CB SCT040 OVC090 
     BECMG 2621/2623 7000 NSC
       
OITT 261330Z 25006KT 9999 TS VCSH FEW032TCU SCT040CB BKN170 25/06 Q1016 A3002
TAF OITT 261100Z 2612/2718 24003MPS 7000 FEW030CB FEW035 BKN100 
     TEMPO 2612/2616 30007MPS 5000 TSRA SCT030CB SCT035 OVC090 
     BECMG 2621/2623 7000 NSC
       
OITZ 261300Z 27004KT 7000 BKN030CB SCT170 23/10 Q1017
OIYY 261330Z 03006KT 9999 FEW040 35/M03 Q1012
OIZB 261300Z 02008KT CAVOK 39/M01 Q1003
OIZH 261300Z 02010KT 9999 FEW040 BKN200 33/M01 Q1013 A2993 NOSIG
TAF OIZH 261100Z 2612/2718 07003MPS 7000 FEW040SCT100 
     TEMPO 2612/2618 07008MPS
       
OIZI 261300Z 24008KT CAVOK 41/03 Q1006
OIZJ 261300Z 21010KT 6000 NSC 32/27 Q1003
OIFM 261330Z 23006KT 6000 NSC 30/M02 Q1015 A2998
TAF OIFM 261100Z 2612/2718 22004MPS 7000 FEW040 
     BECMG 2700/2702 3000 HZ 
     BECMG 2706/2708 7000 NSC
       
OISF 261300Z 21010KT 6000 NSC 33/M01 Q1011
OIAH 261300Z 31008KT 7000 NSC 36/M02 Q1009
OIAA 261300Z 36010KT CAVOK 42/09 Q1005
TAF OIAA 261100Z 2612/2718 30004MPS 7000 NSC 
     TEMPO 2612/2616 30007MPS 3000 DU SA 
     TEMPO 2709/2712 33008MPS SA
       
OIAG 261300Z 32016KT 8000 NSC 41/07 Q1004
OIAH 261300Z 31008KT 7000 NSC 36/M02 Q1009
OIAM 261300Z 30010KT CAVOK 41/10 Q1004
OIAW 261330Z 01004KT 8000 NSC 41/06 Q1003
TAF OIAW 261100Z 2612/2718 06004MPS 7000 NSC 
     TEMPO 2612/2618 27009MPS 3000 SA DU 
     TEMPO 2709/2712 27009MPS 3000 SA
       
OIBA 261300Z 28006KT 8000 NSC 32/25 Q1003
OIBB 261330Z 31014KT 7000 NSC 32/22 Q1004 A2965
OIBJ 261300Z 22012KT 7000 NSC 34/11 Q1009
OIBK 261300Z 22006KT 6000 NSC 35/14 Q1004
TAF OIBK 261100Z 2612/2718 24004MPS 6000 FEW040 SCT100 
     TEMPO 2614/2619 27007MPS FEW035CB FEW030 BKN100 
     BECMG 2618/2620 3000 BR 
     BECMG 2704/2706 7000 NSC
       
OIBL 261300Z 24014KT 3500 HZ NSC 35/19 Q1004
OIBP 261230Z 25004KT 5000 HZ FEW040 BKN200 36/15 Q1001 A2958
OIBQ 261300Z 27014KT 8000 NSC 33/23 Q1004
OIBS 261300Z 22006KT 6000 FEW035 BKN090 33/24 Q1004
OIBV 261300Z 32010KT 6000 NSC 32/18 Q1004
OICC 261330Z 29008KT 9999 SCT040 27/04 Q1016 A3001 NOSIG
OICI 261300Z 31010KT 9999 SCT045 29/07 Q1018
TAF OICI 261100Z 2612/2718 27004MPS 7000 NSC 
     TEMPO 2612/2616 30007MPS 5000 SA
       
OICS 261300Z 27004KT 9999 FEW035TCU SCT040 28/02 Q1016
OIFM 261330Z 23006KT 6000 NSC 30/M02 Q1015 A2998
TAF OIFM 261100Z 2612/2718 22004MPS 7000 FEW040 
     BECMG 2700/2702 3000 HZ 
     BECMG 2706/2708 7000 NSC
       
OIFS 261300Z 19010KT 9000 FEW040 26/01 Q1020
OIGG 261330Z 36004KT CAVOK 27/15 Q1010
OIHH 261300Z 32014KT 8000 SCT040 24/08 Q1018
OIHR 261100Z 26012KT 4000 DU FEW035TCU SCT040 26/02 Q1018
OIIE 261300Z 31012KT 9999 FEW040 32/03 Q1011
TAF OIIE 261100Z 2612/2718 30004MPS CAVOK 
     TEMPO 2615/2621 29007G12MPS 3000 SA FEW035TCU SCT040 BKN100
       
OIII 261330Z 28014KT 8000 FEW035 30/M00 Q1012 A2991
TAF OIII 261100Z 2612/2718 22004MPS 7000 FEW030 
     TEMPO 2612/2618 30007G12MPS 3000 SA FEW035TCU SCT040 BKN100
       
OIIK 261300Z 18004KT 7000 FEW035CB SCT040 29/07 Q1014
OIIP 261300Z 32012KT 5000 HZ SCT035TCU 28/01 Q1013
OIKB 261330Z 22012KT 4000 HZ FEW030 SCT090 BKN190 37/21 Q1003 A2963
TAF OIKB 261100Z 2612/2718 23004MPS 4000 HZ FEW040 SCT100 
     TEMPO 2612/2621 23009MPS 
     TEMPO 2709/2712 23009MPS FEW030CB SCT035 BKN100
       
OIKK 261300Z 34008KT 9999 FEW045 SCT200 33/M12 Q1016 A3000
TAF OIKK 261100Z 2612/2718 33004MPS CAVOK 
     TEMPO 2612/2615 FEW040TCU SCT045
       
OIKQ 261300Z 25016KT 6000 NSC 32/26 Q1003
OIMB 261300Z 35010KT 9999 FEW040 33/M08 Q1014
OIMC 261300Z 36008KT CAVOK 40/M07 Q1006
OIMD 261300Z 36010KT 9999 FEW040 SCT200 35/M04 Q1008
OIMM 261330Z 06004KT CAVOK 34/M04 Q1010 A2984
TAF OIMM 261100Z 2612/2718 30004MPS 8000 NSC 
     TEMPO 2704/2708 30007MPS FEW035CB SCT040 BKN090
       
OIMN 261300Z 28010KT 9999 FEW040 SCT090 31/01 Q1012
OIMQ 261300Z 24010KT CAVOK 34/M04 Q1011
OINE 261300Z 27012KT CAVOK 36/13 Q1006
OING 261300Z 28016KT 9999 SCT100 33/15 Q1009
OINN 261300Z VRB02KT 9999 FEW028CB SCT035 BKN170 27/22 Q1007
OINR 261300Z 32012KT 9999 FEW030CB SCT035 28/19 Q1007
OINZ 261300Z 32010KT CAVOK 31/16 Q1008
OISF 261300Z 21010KT 6000 NSC 33/M01 Q1011
OISL 261300Z 29006KT CAVOK 37/07 Q1007
TAF OISL 261100Z 2612/2718 27004MPS CAVOK 
     BECMG 2621/2623 7000 FEW040 SCT100
       
OISR 261300Z 14006KT CAVOK 38/09 Q1006
OISS 261330Z 29008KT 5000 DU NSC 31/M06 Q1014 A2996
TAF OISS 261100Z 2612/2718 30004MPS 5000 DU NSC 
     TEMPO 2612/2617 30008G13MPS
       
OISY 261300Z 17006KT 9000 NSC 27/M01 Q1018
OITK 260830Z 05004KT 9999 SCT035TCU 25/14 Q1014
OITL 261330Z 07019KT 9999 SCT040 SCT045CB BKN190 21/12 Q1015
OITM 261300Z 27008KT 9999 FEW035TCU SCT100 BKN170 23/11 Q1016
OITP 261300Z 11008KT 9999 FEW035 FEW035TCU SCT180 33/15 Q1007
OITR 261330Z 07006KT 9999 SCT030CB SCT035 22/11 Q1017 RETS
TAF OITR 261100Z 2612/2718 06005MPS 8000 FEW035CB FEW040 BKN100 
     TEMPO 2612/2618 5000 TSRA SCT035CB SCT040 OVC090 
     BECMG 2621/2623 7000 NSC
       
OITT 261330Z 25006KT 9999 TS VCSH FEW032TCU SCT040CB BKN170 25/06 Q1016 A3002
TAF OITT 261100Z 2612/2718 24003MPS 7000 FEW030CB FEW035 BKN100 
     TEMPO 2612/2616 30007MPS 5000 TSRA SCT030CB SCT035 OVC090 
     BECMG 2621/2623 7000 NSC
       
OITZ 261300Z 27004KT 7000 BKN030CB SCT170 23/10 Q1017
OIYY 261330Z 03006KT 9999 FEW040 35/M03 Q1012
OIZB 261300Z 02008KT CAVOK 39/M01 Q1003
OIZH 261300Z 02010KT 9999 FEW040 BKN200 33/M01 Q1013 A2993 NOSIG
TAF OIZH 261100Z 2612/2718 07003MPS 7000 FEW040SCT100 
     TEMPO 2612/2618 07008MPS
       
OIZI 261300Z 24008KT CAVOK 41/03 Q1006
OIZJ 261300Z 21010KT 6000 NSC 32/27 Q1003
OIIK 261300Z 18004KT 7000 FEW035CB SCT040 29/07 Q1014
OIAA 261300Z 36010KT CAVOK 42/09 Q1005
TAF OIAA 261100Z 2612/2718 30004MPS 7000 NSC 
     TEMPO 2612/2616 30007MPS 3000 DU SA 
     TEMPO 2709/2712 33008MPS SA
       
OIAG 261300Z 32016KT 8000 NSC 41/07 Q1004
OIAH 261300Z 31008KT 7000 NSC 36/M02 Q1009
OIAM 261300Z 30010KT CAVOK 41/10 Q1004
OIAW 261330Z 01004KT 8000 NSC 41/06 Q1003
TAF OIAW 261100Z 2612/2718 06004MPS 7000 NSC 
     TEMPO 2612/2618 27009MPS 3000 SA DU 
     TEMPO 2709/2712 27009MPS 3000 SA
       
OIBA 261300Z 28006KT 8000 NSC 32/25 Q1003
OIBB 261330Z 31014KT 7000 NSC 32/22 Q1004 A2965
OIBJ 261300Z 22012KT 7000 NSC 34/11 Q1009
OIBK 261300Z 22006KT 6000 NSC 35/14 Q1004
TAF OIBK 261100Z 2612/2718 24004MPS 6000 FEW040 SCT100 
     TEMPO 2614/2619 27007MPS FEW035CB FEW030 BKN100 
     BECMG 2618/2620 3000 BR 
     BECMG 2704/2706 7000 NSC
       
OIBL 261300Z 24014KT 3500 HZ NSC 35/19 Q1004
OIBP 261230Z 25004KT 5000 HZ FEW040 BKN200 36/15 Q1001 A2958
OIBQ 261300Z 27014KT 8000 NSC 33/23 Q1004
OIBS 261300Z 22006KT 6000 FEW035 BKN090 33/24 Q1004
OIBV 261300Z 32010KT 6000 NSC 32/18 Q1004
OICC 261330Z 29008KT 9999 SCT040 27/04 Q1016 A3001 NOSIG
OICI 261300Z 31010KT 9999 SCT045 29/07 Q1018
TAF OICI 261100Z 2612/2718 27004MPS 7000 NSC 
     TEMPO 2612/2616 30007MPS 5000 SA
       
OICS 261300Z 27004KT 9999 FEW035TCU SCT040 28/02 Q1016
OIFM 261330Z 23006KT 6000 NSC 30/M02 Q1015 A2998
TAF OIFM 261100Z 2612/2718 22004MPS 7000 FEW040 
     BECMG 2700/2702 3000 HZ 
     BECMG 2706/2708 7000 NSC
       
OIFS 261300Z 19010KT 9000 FEW040 26/01 Q1020
OIGG 261330Z 36004KT CAVOK 27/15 Q1010
OIHH 261300Z 32014KT 8000 SCT040 24/08 Q1018
OIHR 261100Z 26012KT 4000 DU FEW035TCU SCT040 26/02 Q1018
OIIE 261300Z 31012KT 9999 FEW040 32/03 Q1011
TAF OIIE 261100Z 2612/2718 30004MPS CAVOK 
     TEMPO 2615/2621 29007G12MPS 3000 SA FEW035TCU SCT040 BKN100
       
OIII 261330Z 28014KT 8000 FEW035 30/M00 Q1012 A2991
TAF OIII 261100Z 2612/2718 22004MPS 7000 FEW030 
     TEMPO 2612/2618 30007G12MPS 3000 SA FEW035TCU SCT040 BKN100
       
OIIK 261300Z 18004KT 7000 FEW035CB SCT040 29/07 Q1014
OIIP 261300Z 32012KT 5000 HZ SCT035TCU 28/01 Q1013
OIKB 261330Z 22012KT 4000 HZ FEW030 SCT090 BKN190 37/21 Q1003 A2963
TAF OIKB 261100Z 2612/2718 23004MPS 4000 HZ FEW040 SCT100 
     TEMPO 2612/2621 23009MPS 
     TEMPO 2709/2712 23009MPS FEW030CB SCT035 BKN100
       
OIKK 261300Z 34008KT 9999 FEW045 SCT200 33/M12 Q1016 A3000
TAF OIKK 261100Z 2612/2718 33004MPS CAVOK 
     TEMPO 2612/2615 FEW040TCU SCT045
       
OIKQ 261300Z 25016KT 6000 NSC 32/26 Q1003
OIMB 261300Z 35010KT 9999 FEW040 33/M08 Q1014
OIMC 261300Z 36008KT CAVOK 40/M07 Q1006
OIMD 261300Z 36010KT 9999 FEW040 SCT200 35/M04 Q1008
OIMM 261330Z 06004KT CAVOK 34/M04 Q1010 A2984
TAF OIMM 261100Z 2612/2718 30004MPS 8000 NSC 
     TEMPO 2704/2708 30007MPS FEW035CB SCT040 BKN090
       
OIMN 261300Z 28010KT 9999 FEW040 SCT090 31/01 Q1012
OIMQ 261300Z 24010KT CAVOK 34/M04 Q1011
OINE 261300Z 27012KT CAVOK 36/13 Q1006
OING 261300Z 28016KT 9999 SCT100 33/15 Q1009
OINN 261300Z VRB02KT 9999 FEW028CB SCT035 BKN170 27/22 Q1007
OINR 261300Z 32012KT 9999 FEW030CB SCT035 28/19 Q1007
OINZ 261300Z 32010KT CAVOK 31/16 Q1008
OISF 261300Z 21010KT 6000 NSC 33/M01 Q1011
OISL 261300Z 29006KT CAVOK 37/07 Q1007
TAF OISL 261100Z 2612/2718 27004MPS CAVOK 
     BECMG 2621/2623 7000 FEW040 SCT100
       
OISR 261300Z 14006KT CAVOK 38/09 Q1006
OISS 261330Z 29008KT 5000 DU NSC 31/M06 Q1014 A2996
TAF OISS 261100Z 2612/2718 30004MPS 5000 DU NSC 
     TEMPO 2612/2617 30008G13MPS
       
OISY 261300Z 17006KT 9000 NSC 27/M01 Q1018
OITK 260830Z 05004KT 9999 SCT035TCU 25/14 Q1014
OITL 261330Z 07019KT 9999 SCT040 SCT045CB BKN190 21/12 Q1015
OITM 261300Z 27008KT 9999 FEW035TCU SCT100 BKN170 23/11 Q1016
OITP 261300Z 11008KT 9999 FEW035 FEW035TCU SCT180 33/15 Q1007
OITR 261330Z 07006KT 9999 SCT030CB SCT035 22/11 Q1017 RETS
TAF OITR 261100Z 2612/2718 06005MPS 8000 FEW035CB FEW040 BKN100 
     TEMPO 2612/2618 5000 TSRA SCT035CB SCT040 OVC090 
     BECMG 2621/2623 7000 NSC
       
OITT 261330Z 25006KT 9999 TS VCSH FEW032TCU SCT040CB BKN170 25/06 Q1016 A3002
TAF OITT 261100Z 2612/2718 24003MPS 7000 FEW030CB FEW035 BKN100 
     TEMPO 2612/2616 30007MPS 5000 TSRA SCT030CB SCT035 OVC090 
     BECMG 2621/2623 7000 NSC
       
OITZ 261300Z 27004KT 7000 BKN030CB SCT170 23/10 Q1017
OIYY 261330Z 03006KT 9999 FEW040 35/M03 Q1012
OIZB 261300Z 02008KT CAVOK 39/M01 Q1003
OIZH 261300Z 02010KT 9999 FEW040 BKN200 33/M01 Q1013 A2993 NOSIG
TAF OIZH 261100Z 2612/2718 07003MPS 7000 FEW040SCT100 
     TEMPO 2612/2618 07008MPS
       
OIZI 261300Z 24008KT CAVOK 41/03 Q1006
OIZJ 261300Z 21010KT 6000 NSC 32/27 Q1003
OING 261300Z 28016KT 9999 SCT100 33/15 Q1009
OIHH 261300Z 32014KT 8000 SCT040 24/08 Q1018
OICI 261300Z 31010KT 9999 SCT045 29/07 Q1018
TAF OICI 261100Z 2612/2718 27004MPS 7000 NSC 
     TEMPO 2612/2616 30007MPS 5000 SA
       
OIZI 261300Z 24008KT CAVOK 41/03 Q1006
OIZJ 261300Z 21010KT 6000 NSC 32/27 Q1003
OINE 261300Z 27012KT CAVOK 36/13 Q1006
OIKK 261300Z 34008KT 9999 FEW045 SCT200 33/M12 Q1016 A3000
TAF OIKK 261100Z 2612/2718 33004MPS CAVOK 
     TEMPO 2612/2615 FEW040TCU SCT045
       
OIBQ 261300Z 27014KT 8000 NSC 33/23 Q1004
OIBK 261300Z 22006KT 6000 NSC 35/14 Q1004
TAF OIBK 261100Z 2612/2718 24004MPS 6000 FEW040 SCT100 
     TEMPO 2614/2619 27007MPS FEW035CB FEW030 BKN100 
     BECMG 2618/2620 3000 BR 
     BECMG 2704/2706 7000 NSC
       
OISR 261300Z 14006KT CAVOK 38/09 Q1006
OISL 261300Z 29006KT CAVOK 37/07 Q1007
TAF OISL 261100Z 2612/2718 27004MPS CAVOK 
     BECMG 2621/2623 7000 FEW040 SCT100
       
OIBV 261300Z 32010KT 6000 NSC 32/18 Q1004
OIAM 261300Z 30010KT CAVOK 41/10 Q1004
OIMM 261330Z 06004KT CAVOK 34/M04 Q1010 A2984
TAF OIMM 261100Z 2612/2718 30004MPS 8000 NSC 
     TEMPO 2704/2708 30007MPS FEW035CB SCT040 BKN090
       
OIII 261330Z 28014KT 8000 FEW035 30/M00 Q1012 A2991
TAF OIII 261100Z 2612/2718 22004MPS 7000 FEW030 
     TEMPO 2612/2618 30007G12MPS 3000 SA FEW035TCU SCT040 BKN100
       
OINN 261300Z VRB02KT 9999 FEW028CB SCT035 BKN170 27/22 Q1007
OITP 261300Z 11008KT 9999 FEW035 FEW035TCU SCT180 33/15 Q1007
OIIP 261300Z 32012KT 5000 HZ SCT035TCU 28/01 Q1013
OINR 261300Z 32012KT 9999 FEW030CB SCT035 28/19 Q1007
OIGG 261330Z 36004KT CAVOK 27/15 Q1010
OITM 261300Z 27008KT 9999 FEW035TCU SCT100 BKN170 23/11 Q1016
OICS 261300Z 27004KT 9999 FEW035TCU SCT040 28/02 Q1016
OIMC 261300Z 36008KT CAVOK 40/M07 Q1006
OINZ 261300Z 32010KT CAVOK 31/16 Q1008
OICC 261330Z 29008KT 9999 SCT040 27/04 Q1016 A3001 NOSIG
OIFS 261300Z 19010KT 9000 FEW040 26/01 Q1020
OISS 261330Z 29008KT 5000 DU NSC 31/M06 Q1014 A2996
TAF OISS 261100Z 2612/2718 30004MPS 5000 DU NSC 
     TEMPO 2612/2617 30008G13MPS
       
OIBS 261300Z 22006KT 6000 FEW035 BKN090 33/24 Q1004
OITT 261330Z 25006KT 9999 TS VCSH FEW032TCU SCT040CB BKN170 25/06 Q1016 A3002
TAF OITT 261100Z 2612/2718 24003MPS 7000 FEW030CB FEW035 BKN100 
     TEMPO 2612/2616 30007MPS 5000 TSRA SCT030CB SCT035 OVC090 
     BECMG 2621/2623 7000 NSC
       
OIBJ 261300Z 22012KT 7000 NSC 34/11 Q1009
OITR 261330Z 07006KT 9999 SCT030CB SCT035 22/11 Q1017 RETS
TAF OITR 261100Z 2612/2718 06005MPS 8000 FEW035CB FEW040 BKN100 
     TEMPO 2612/2618 5000 TSRA SCT035CB SCT040 OVC090 
     BECMG 2621/2623 7000 NSC
       
OISY 261300Z 17006KT 9000 NSC 27/M01 Q1018
OIYY 261330Z 03006KT 9999 FEW040 35/M03 Q1012
OIZB 261300Z 02008KT CAVOK 39/M01 Q1003
OIZH 261300Z 02010KT 9999 FEW040 BKN200 33/M01 Q1013 A2993 NOSIG
TAF OIZH 261100Z 2612/2718 07003MPS 7000 FEW040SCT100 
     TEMPO 2612/2618 07008MPS
       
OITZ 261300Z 27004KT 7000 BKN030CB SCT170 23/10 Q1017